sat.trackr.live / text

‹ back to catalog

STARLINK-32315

NORAD 60740 · 2024-152W

PAYLOAD ACTIVE UNKNOWN

§ Identity

Operator
Country
US
Launch date
2024-08-28
Launch site
AFETR
Launch vehicle
Mass (kg)
RCS (m²)

Purposes: comms

External: N2YO · Heavens-Above · Gunter

§ Orbital elements

Epoch: 2026-05-25T01:46:58.465056Z

Period
94.11 min
Inclination
53.1610°
Eccentricity
0.0000948
Mean motion
15.30194830 rev/d
Perigee alt
474.6 km
Apogee alt
475.9 km
Semi-major
6,853.4 km
B*
-2.8856e-5
RAAN
273.7709°
Arg perigee
115.4690°
Mean anomaly
244.6408°
Rev number
9,841

§ Raw data

STARLINK-323151 60740U 24152W   26145.07428779 -.00001213  00000+0 -28856-4 0  99942 60740  53.1610 273.7709 0000948 115.4690 244.6408 15.30194830 98411

JSON: /api/v1/satellites/60740 · /tle

For live sub-satellite position, see the globe view (requires WebGL).

§ Visibility from observer

Set your observer location to see the next 7 days of passes ≥ 10°. The values pass through the URL so the page stays shareable.

No JS? Fill the form by hand. The geolocation button needs JavaScript.